EW4074 Weather Reports


Display with metric or nautical units.
time (UTC)temp
F
wind
direction
speed
MPH
gust
MPH
rain 1hr
in
rain 24hr
in
rain mn
in
humidity
%
barometer
mb
20260902183907 75 274 0.0 0.0 0.04 0.05 0.05 93 1047.2
20260902183401 75 275 0.0 0.0 0.04 0.05 0.05 93 1047.6
20260902182855 75 275 0.0 0.0 0.03 0.04 0.04 92 1047.6
20260902182612 76 274 0.0 1.0 0.03 0.04 0.04 91 1047.6
20260902181843 76 275 0.0 1.0 0.02 0.03 0.03 90 1047.6
20260902181337 76 9 0.0 1.0 0.01 0.02 0.02 89 1047.6
20260902180826 77 236 0.0 0.0 0.01 0.02 0.02 89 1046.6
20260902180325 78 236 0.0 2.0 0.01 0.02 0.02 87 1046.6
20260902180300 78 229 1.0 3.0 0.01 0.02 0.02 84 1046.6
20260902175313 79 170 1.0 7.0 0.01 0.02 0.02 83 1046.8
20260902174807 81 350 2.0 7.0 0.01 0.02 0.02 80 1046.8
20260902174301 85 299 3.0 11.0 0.00 0.01 0.02 74 1046.8
20260902173756 87 207 3.0 14.0 0.00 0.01 0.01 69 1047.1
20260902173245 88 56 4.0 14.0 0.00 0.01 0.01 69 1047.1
20260902172743 89 312 4.0 13.0 0.00 0.01 0.01 70 1047.1
20260902172504 89 267 4.0 13.0 0.00 0.01 0.01 71 1046.9
20260902171731 90 136 3.0 11.0 0.00 0.01 0.01 71 1046.9
20260902171225 91 263 3.0 9.0 0.00 0.01 0.01 72 1046.9
20260902170947 92 192 2.0 9.0 0.00 0.01 0.01 69 1046.6
20260902170214 94 303 1.0 6.0 0.00 0.01 0.01 66 1046.6
20260902165708 94 84 1.0 4.0 0.00 0.01 0.01 65 1046.6
20260902165201 93 147 2.0 6.0 0.00 0.01 0.01 65 1046.8
20260902164656 93 200 1.0 6.0 0.00 0.01 0.01 66 1046.8
20260902164149 92 67 1.0 3.0 0.00 0.01 0.01 67 1046.8
20260902163644 91 88 1.0 3.0 0.00 0.01 0.01 71 1047.0
20260902163137 91 84 1.0 3.0 0.00 0.01 0.01 68 1047.0
20260902162631 91 239 1.0 3.0 0.00 0.01 0.01 68 1047.0
20260902162346 91 157 1.0 3.0 0.00 0.01 0.01 69 1047.1
20260902161619 91 300 1.0 4.0 0.00 0.01 0.01 68 1047.1
20260902161114 91 236 2.0 6.0 0.00 0.01 0.01 68 1047.1
20260902160607 92 265 2.0 6.0 0.00 0.01 0.01 67 1047.0
20260902160325 92 265 2.0 6.0 0.00 0.01 0.01 67 1047.0
20260902155555 92 246 2.0 6.0 0.00 0.01 0.01 68 1047.0
20260902155050 91 217 2.0 8.0 0.00 0.01 0.01 68 1046.9
20260902154540 91 240 1.0 8.0 0.00 0.01 0.01 68 1046.9
20260902154037 90 263 1.0 3.0 0.00 0.01 0.01 70 1046.9
20260902153531 89 276 2.0 5.0 0.00 0.01 0.01 71 1046.7
20260902153025 89 15 2.0 5.0 0.00 0.01 0.01 71 1046.7
20260902152748 89 57 1.0 3.0 0.00 0.01 0.01 72 1046.7
20260902152010 88 107 1.0 3.0 0.00 0.01 0.01 71 1046.9
20260902151507 88 173 0.0 1.0 0.00 0.01 0.01 74 1046.9
20260902151000 88 159 0.0 2.0 0.00 0.01 0.01 75 1046.9
20260902150452 88 159 1.0 3.0 0.00 0.01 0.01 73 1046.7
20260902145949 87 244 2.0 3.0 0.00 0.01 0.01 73 1046.7
20260902145447 87 132 1.0 3.0 0.00 0.01 0.01 73 1046.7
20260902144945 87 140 0.0 2.0 0.00 0.01 0.01 75 1046.7
20260902144443 87 135 0.0 1.0 0.00 0.01 0.01 74 1046.7
20260902143945 87 171 0.0 2.0 0.00 0.01 0.01 75 1046.7
20260902143444 87 155 0.0 2.0 0.00 0.01 0.01 73 1046.7
20260902142941 87 157 1.0 3.0 0.00 0.01 0.01 74 1046.7
20260902142439 87 141 1.0 3.0 0.00 0.01 0.01 73 1046.7
20260902141936 87 140 0.0 3.0 0.00 0.01 0.01 74 1046.7
20260902141436 87 202 1.0 3.0 0.00 0.01 0.01 74 1046.7
20260902141202 87 153 1.0 3.0 0.00 0.01 0.01 74 1046.7
20260902140436 87 141 1.0 3.0 0.00 0.01 0.01 76 1046.7
20260902135934 87 197 0.0 3.0 0.00 0.01 0.01 75 1046.7
20260902135438 87 92 0.0 2.0 0.00 0.01 0.01 76 1046.7
20260902134938 86 154 0.0 2.0 0.00 0.01 0.01 77 1046.8
20260902134432 85 148 0.0 3.0 0.00 0.01 0.01 78 1046.8
20260902134142 85 281 1.0 3.0 0.00 0.01 0.01 77 1046.8
20260902133418 84 242 1.0 3.0 0.00 0.01 0.01 78 1046.7
20260902133134 84 259 1.0 3.0 0.00 0.01 0.01 78 1046.7
20260902132418 84 286 1.0 2.0 0.00 0.01 0.01 77 1046.7
20260902132137 84 158 1.0 2.0 0.00 0.01 0.01 78 1046.7
20260902131418 84 146 1.0 2.0 0.00 0.01 0.01 77 1046.7
20260902130919 84 211 0.0 2.0 0.00 0.01 0.01 78 1046.7
20260902130421 84 152 0.0 1.0 0.00 0.01 0.01 80 1046.9
20260902125922 83 153 0.0 1.0 0.00 0.01 0.01 81 1046.9
20260902125416 83 153 0.0 1.0 0.00 0.01 0.01 83 1046.9
20260902124904 82 153 0.0 1.0 0.00 0.01 0.01 84 1046.6
20260902124614 80 82 0.0 0.0 0.00 0.01 0.01 88 1046.6
20260902124102 79 81 0.0 0.0 0.00 0.01 0.01 90 1046.6
20260902123325 78 82 0.0 0.0 0.00 0.01 0.01 92 1046.6
20260902122813 76 82 0.0 0.0 0.00 0.01 0.01 95 1046.6
20260902122528 74 82 0.0 0.0 0.00 0.01 0.01 97 1046.6
20260902121757 73 82 0.0 0.0 0.00 0.01 0.01 97 1046.6
20260902121246 72 82 0.0 0.0 0.00 0.01 0.01 97 1046.6
20260902120740 72 82 0.0 0.0 0.00 0.01 0.01 97 1046.5
20260902120457 71 82 0.0 0.0 0.00 0.01 0.01 97 1046.5
20260902115733 71 82 0.0 0.0 0.00 0.01 0.01 97 1046.5
20260902115226 71 82 0.0 0.0 0.00 0.01 0.01 97 1046.5
20260902114945 71 81 0.0 0.0 0.00 0.01 0.01 97 1046.5
20260902114215 71 82 0.0 1.0 0.00 0.01 0.01 97 1046.5
20260902113925 71 82 0.0 1.0 0.00 0.01 0.01 97 1046.5
20260902113203 70 82 0.0 1.0 0.00 0.01 0.01 97 1046.5
20260902112657 70 82 0.0 1.0 0.00 0.01 0.01 97 1046.5
20260902112150 70 82 0.0 0.0 0.00 0.01 0.01 96 1046.5
20260902111903 70 82 0.0 0.0 0.00 0.01 0.01 96 1046.5
20260902111138 70 82 0.0 0.0 0.00 0.01 0.01 96 1046.5
20260902110633 70 81 0.0 0.0 0.00 0.01 0.01 96 1046.6
20260902110350 70 82 0.0 1.0 0.00 0.01 0.01 96 1046.6
20260902105620 70 82 0.0 1.0 0.01 0.01 0.01 96 1046.6
20260902105115 71 82 0.0 0.0 0.01 0.01 0.01 96 1046.7
20260902104606 71 82 0.0 0.0 0.01 0.01 0.01 96 1046.7
20260902104320 71 82 0.0 0.0 0.01 0.01 0.01 96 1046.7
20260902103554 71 82 0.0 0.0 0.01 0.01 0.01 96 1046.9
20260902103050 71 82 0.0 0.0 0.01 0.01 0.01 96 1046.9
20260902102800 71 82 0.0 1.0 0.01 0.01 0.01 95 1046.9
20260902102307 71 82 0.0 1.0 0.01 0.01 0.01 96 1046.6
20260902101746 71 81 0.0 1.0 0.01 0.01 0.01 96 1046.6
20260902101025 71 262 0.0 0.0 0.01 0.01 0.01 95 1046.6
20260902100518 71 262 0.0 0.0 0.01 0.01 0.01 95 1046.6
20260902100013 71 262 0.0 0.0 0.01 0.01 0.01 95 1046.6
20260902095506 71 262 0.0 0.0 0.00 0.00 0.00 94 1046.6
20260902095001 71 262 0.0 0.0 0.00 0.00 0.00 94 1046.6
20260902094454 71 262 0.0 0.0 0.00 0.00 0.00 94 1046.6
20260902093949 71 262 0.0 0.0 0.00 0.00 0.00 94 1046.6
20260902093442 71 262 0.0 0.0 0.00 0.00 0.00 94 1046.6
20260902092933 71 262 0.0 0.0 0.00 0.00 0.00 94 1046.6
20260902092429 71 262 0.0 0.0 0.00 0.00 0.00 94 1046.6
20260902092416 71 262 0.0 0.0 0.00 0.00 0.00 94 1046.6
20260902091418 71 262 0.0 0.0 0.00 0.00 0.00 94 1046.6
20260902091131 71 262 0.0 0.0 0.00 0.00 0.00 94 1046.6
20260902090402 71 262 0.0 0.0 0.00 0.00 0.00 94 1046.4
20260902085900 71 262 0.0 0.0 0.00 0.00 0.00 94 1046.4
20260902085350 71 262 0.0 0.0 0.00 0.00 0.00 93 1046.4
20260902085111 71 262 0.0 0.0 0.00 0.00 0.00 93 1046.5
20260902084342 71 262 0.0 0.0 0.00 0.00 0.00 93 1046.5
20260902083836 71 262 0.0 0.0 0.00 0.00 0.00 93 1046.5
20260902083330 71 262 0.0 0.0 0.00 0.00 0.00 93 1046.5
20260902082820 71 262 0.0 0.0 0.00 0.00 0.00 92 1046.5
20260902082318 72 262 0.0 0.0 0.00 0.00 0.00 93 1046.1
20260902081812 72 262 0.0 0.0 0.00 0.00 0.00 92 1046.1
20260902081306 72 262 0.0 0.0 0.00 0.00 0.00 92 1046.1
20260902080800 72 262 0.0 0.0 0.00 0.00 0.00 92 1046.1
20260902080514 72 262 0.0 0.0 0.00 0.00 0.00 92 1046.1
20260902075748 72 262 0.0 0.0 0.00 0.00 0.00 92 1046.1
20260902075722 72 262 0.0 0.0 0.00 0.00 0.00 92 1046.1
20260902074956 72 262 0.0 0.0 0.00 0.00 0.00 92 1046.1
20260902074225 72 262 0.0 0.0 0.00 0.00 0.00 91 1046.1
20260902073724 73 262 0.0 0.0 0.00 0.00 0.00 91 1046.0
20260902073217 73 262 0.0 0.0 0.00 0.00 0.00 91 1046.0
20260902072711 73 262 0.0 0.0 0.00 0.00 0.00 91 1046.0
20260902072429 73 262 0.0 0.0 0.00 0.00 0.00 91 1045.9
20260902071655 73 262 0.0 0.0 0.00 0.00 0.00 91 1045.9
20260902071414 73 262 0.0 0.0 0.00 0.00 0.00 91 1045.9
20260902070643 73 262 0.0 0.0 0.00 0.00 0.00 91 1045.8
20260902070142 73 262 0.0 0.0 0.00 0.00 0.00 91 1045.8
20260902065636 73 262 0.0 0.0 0.00 0.00 0.00 91 1045.8
20260902065136 73 262 0.0 0.0 0.00 0.00 0.00 91 1045.7
20260902064634 73 262 0.0 0.0 0.00 0.00 0.00 91 1045.7
20260902064131 73 262 0.0 0.0 0.00 0.00 0.00 91 1045.7
20260902063635 73 262 0.0 0.0 0.00 0.00 0.00 91 1046.0
20260902063132 73 262 0.0 0.0 0.00 0.00 0.00 91 1046.0
20260902062630 73 262 0.0 0.0 0.00 0.00 0.00 91 1046.0
20260902062128 73 262 0.0 0.0 0.00 0.00 0.00 92 1046.0
20260902061627 73 262 0.0 0.0 0.00 0.00 0.00 92 1046.0
20260902061345 73 262 0.0 0.0 0.00 0.00 0.00 91 1046.0
20260902060625 73 262 0.0 0.0 0.00 0.00 0.00 91 1046.1
20260902060123 73 262 0.0 0.0 0.00 0.00 0.00 91 1046.1
20260902055621 73 262 0.0 0.0 0.00 0.00 0.00 91 1046.1
20260902055120 73 262 0.0 0.0 0.00 0.00 0.00 91 1045.9
20260902055101 73 262 0.0 0.0 0.00 0.00 0.00 92 1045.9
20260902035538 72 35 0.0 0.0 0.00 0.00 0.00 91 1045.8
20260902035039 72 35 0.0 0.0 0.00 0.00 0.00 90 1045.5
20260902034540 72 35 0.0 0.0 0.00 0.00 0.00 90 1045.5
20260902034041 73 35 0.0 0.0 0.00 0.00 0.00 90 1045.5
20260902033532 73 34 0.0 0.0 0.00 0.00 0.00 90 1045.1
20260902033019 73 35 0.0 0.0 0.00 0.00 0.00 90 1045.1
20260902032511 73 35 0.0 0.0 0.00 0.00 0.00 90 1045.1
20260902032006 73 34 0.0 0.0 0.00 0.00 0.00 90 1045.0
20260902031500 73 35 0.0 0.0 0.00 0.00 0.00 89 1045.0
20260902030954 73 35 0.0 0.0 0.00 0.00 0.00 89 1045.0
20260902030448 73 340 0.0 0.0 0.00 0.00 0.00 89 1045.0
20260902030208 74 339 0.0 0.0 0.00 0.00 0.00 88 1045.0
20260902025431 74 339 0.0 0.0 0.00 0.00 0.00 88 1045.0
20260902024930 74 340 0.0 0.0 0.00 0.00 0.00 88 1044.9
20260902024424 74 340 0.0 0.0 0.00 0.00 0.00 87 1044.9
20260902024140 75 339 0.0 0.0 0.00 0.00 0.00 87 1044.9
20260902023413 75 340 0.0 0.0 0.00 0.00 0.00 87 1045.0
20260902022900 75 339 0.0 0.0 0.00 0.00 0.00 86 1045.0
20260902022628 76 339 0.0 0.0 0.00 0.00 0.00 86 1045.0
20260902021854 76 339 0.0 0.0 0.00 0.00 0.00 85 1045.1
20260902021349 76 339 0.0 0.0 0.00 0.00 0.00 84 1045.1
20260902020841 77 340 0.0 0.0 0.00 0.00 0.00 83 1045.0
20260902020555 77 340 0.0 0.0 0.00 0.00 0.00 83 1045.0
20260902015829 78 339 0.0 0.0 0.00 0.00 0.00 82 1045.0
20260902015319 78 340 0.0 0.0 0.00 0.00 0.00 81 1045.0
20260902014817 79 340 0.0 0.0 0.00 0.00 0.00 80 1045.0
20260902014312 80 339 0.0 0.0 0.00 0.00 0.00 78 1045.0
20260902013805 81 339 0.0 1.0 0.00 0.00 0.00 76 1045.0
20260902013300 81 340 0.0 2.0 0.00 0.00 0.00 76 1045.0
20260902012753 82 255 0.0 2.0 0.00 0.00 0.00 75 1045.0
20260902012509 82 255 1.0 4.0 0.00 0.00 0.00 75 1044.5
20260902011736 82 262 1.0 4.0 0.00 0.00 0.00 74 1044.5
20260902011235 82 248 1.0 4.0 0.00 0.00 0.00 74 1044.5
20260902010946 82 260 1.0 5.0 0.00 0.00 0.00 75 1044.2
20260902010223 82 252 1.0 5.0 0.00 0.00 0.00 75 1044.2
20260902005718 82 241 0.0 3.0 0.00 0.00 0.00 76 1044.2
20260902005211 82 236 0.0 3.0 0.00 0.00 0.00 76 1044.1
20260902004706 82 215 0.0 0.0 0.00 0.00 0.00 77 1044.1
20260902004155 83 213 0.0 1.0 0.00 0.00 0.00 75 1044.1
20260902003654 83 213 0.0 1.0 0.00 0.00 0.00 75 1043.9
20260902003147 84 205 1.0 5.0 0.00 0.00 0.00 74 1043.9
20260902002907 84 238 1.0 5.0 0.00 0.00 0.00 73 1043.9
20260902002135 84 148 2.0 8.0 0.00 0.00 0.00 73 1043.9
20260902001629 84 202 2.0 10.0 0.00 0.00 0.00 73 1043.9
20260902001348 83 215 1.0 10.0 0.00 0.00 0.00 74 1043.9
20260902000840 83 252 0.0 6.0 0.00 0.00 0.00 74 1043.7
20260902000111 83 240 0.0 6.0 0.00 0.00 0.00 74 1043.7
20260901235605 83 275 0.0 0.0 0.00 0.00 0.00 74 1043.7
20260901235059 84 268 0.0 1.0 0.00 0.00 0.00 73 1043.7
20260901234553 84 256 0.0 1.0 0.00 0.00 0.00 72 1043.7
20260901234047 85 281 0.0 1.0 0.00 0.00 0.00 72 1043.7
20260901233541 86 289 0.0 1.0 0.00 0.00 0.00 71 1043.6
20260901233031 86 223 0.0 3.0 0.00 0.00 0.00 70 1043.6
20260901232529 87 282 2.0 9.0 0.00 0.00 0.00 69 1043.6
20260901232023 87 280 2.0 9.0 0.00 0.00 0.00 68 1043.5
20260901231517 87 228 2.0 7.0 0.00 0.00 0.00 68 1043.5
20260901231012 88 217 2.0 7.0 0.00 0.00 0.00 68 1043.5
20260901230505 88 161 2.0 7.0 0.00 0.00 0.00 68 1043.5
20260901225959 89 277 2.0 6.0 0.00 0.00 0.00 67 1043.5
20260901225710 89 280 2.0 8.0 0.00 0.00 0.00 68 1043.5
20260901225210 89 257 3.0 8.0 0.00 0.00 0.00 68 1043.7
20260901224449 89 232 3.0 10.0 0.00 0.00 0.00 67 1043.7
20260901223949 89 236 3.0 10.0 0.00 0.00 0.00 67 1043.7
20260901223447 89 71 2.0 9.0 0.00 0.00 0.00 68 1043.6
20260901222947 89 259 2.0 7.0 0.00 0.00 0.00 68 1043.6
20260901222446 88 296 2.0 7.0 0.00 0.00 0.00 68 1043.6
20260901221945 88 294 2.0 6.0 0.00 0.00 0.00 68 1043.8
20260901221443 89 259 1.0 6.0 0.00 0.00 0.00 68 1043.8
20260901220943 89 258 2.0 5.0 0.00 0.00 0.00 68 1043.8
20260901220442 89 234 2.0 5.0 0.00 0.00 0.00 68 1043.7
20260901215940 89 229 2.0 9.0 0.00 0.00 0.00 68 1043.7
20260901215439 89 135 3.0 9.0 0.00 0.00 0.00 68 1043.7
20260901214939 89 237 3.0 6.0 0.00 0.00 0.00 67 1043.7
20260901214438 90 318 3.0 8.0 0.00 0.00 0.00 67 1043.7
20260901213941 90 222 3.0 10.0 0.00 0.00 0.00 67 1043.7
20260901213441 90 99 4.0 12.0 0.00 0.00 0.00 66 1043.7
20260901213201 90 217 4.0 12.0 0.00 0.00 0.00 67 1043.7
20260901212440 90 227 4.0 11.0 0.00 0.00 0.00 67 1043.7
20260901212015 90 232 3.0 12.0 0.00 0.00 0.00 67 1043.7
20260901210923 90 208 4.0 10.0 0.00 0.00 0.00 65 1043.7
20260901210417 90 265 4.0 11.0 0.00 0.00 0.00 65 1043.5
20260901205911 91 265 4.0 14.0 0.00 0.00 0.00 64 1043.5
20260901205405 92 247 4.0 14.0 0.00 0.00 0.00 62 1043.5
20260901204859 92 196 5.0 14.0 0.00 0.00 0.00 62 1043.4
20260901204616 93 304 4.0 14.0 0.00 0.00 0.00 61 1043.4
20260901204101 93 252 4.0 11.0 0.00 0.00 0.00 61 1043.3
20260901203341 93 221 4.0 11.0 0.00 0.00 0.00 62 1043.3
20260901202834 93 230 4.0 11.0 0.00 0.00 0.00 61 1043.3
20260901202329 93 245 3.0 11.0 0.00 0.00 0.00 62 1043.4
20260901201822 93 264 4.0 11.0 0.00 0.00 0.00 61 1043.4
20260901201317 93 248 4.0 13.0 0.00 0.00 0.00 61 1043.4
20260901200811 94 268 4.0 13.0 0.00 0.00 0.00 60 1043.4
20260901200300 93 95 5.0 11.0 0.00 0.00 0.00 60 1043.4
20260901195758 94 255 6.0 13.0 0.00 0.00 0.00 59 1043.4
20260901195252 94 111 6.0 16.0 0.00 0.00 0.00 58 1043.4
20260901194742 94 224 4.0 16.0 0.00 0.00 0.00 58 1043.4
20260901194241 95 259 4.0 10.0 0.00 0.00 0.00 58 1043.4
20260901193734 94 221 4.0 11.0 0.00 0.00 0.00 58 1043.8
20260901193229 94 219 4.0 12.0 0.00 0.00 0.00 59 1043.8
20260901192718 95 138 4.0 12.0 0.00 0.00 0.00 58 1043.8
20260901192217 94 271 5.0 12.0 0.00 0.00 0.00 59 1043.9
20260901191711 94 265 5.0 12.0 0.00 0.00 0.00 59 1043.9
20260901191206 94 241 6.0 14.0 0.00 0.00 0.00 58 1043.9
20260901190659 94 323 5.0 14.0 0.00 0.00 0.00 60 1044.2
20260901190152 94 279 5.0 14.0 0.00 0.00 0.00 58 1044.2
20260901185904 94 227 5.0 14.0 0.00 0.00 0.00 59 1044.2
20260901185136 94 238 7.0 15.0 0.00 0.00 0.00 59 1044.2
20260901184634 93 299 6.0 15.0 0.00 0.00 0.00 60 1044.2
20260901184129 93 254 4.0 15.0 0.00 0.00 0.00 61 1044.2